TimeEST,TemperatureF,Dew PointF,Humidity,Sea Level PressureIn,VisibilityMPH,Wind Direction,Wind SpeedMPH,Gust SpeedMPH,PrecipitationIn,Events,Conditions,WindDirDegrees,DateUTC
12:53 AM,55.9,53.1,90,30.11,10.0,North,3.5,-,N/A,,Clear,360,2012-11-22 05:53:00
1:53 AM,55.0,53.1,93,30.11,8.0,Calm,Calm,-,N/A,,Clear,0,2012-11-22 06:53:00
2:53 AM,53.1,51.1,93,30.10,9.0,Calm,Calm,-,N/A,,Clear,0,2012-11-22 07:53:00
3:53 AM,52.0,50.0,93,30.11,10.0,North,3.5,-,N/A,,Clear,350,2012-11-22 08:53:00
4:53 AM,53.1,48.0,83,30.11,10.0,North,5.8,-,N/A,,Clear,360,2012-11-22 09:53:00
5:53 AM,52.0,45.0,77,30.12,10.0,North,3.5,-,N/A,,Clear,350,2012-11-22 10:53:00
6:53 AM,50.0,45.0,83,30.15,10.0,North,4.6,-,N/A,,Clear,350,2012-11-22 11:53:00
7:53 AM,53.1,46.0,77,30.16,10.0,North,6.9,-,N/A,,Clear,360,2012-11-22 12:53:00
8:53 AM,59.0,44.1,58,30.17,10.0,North,5.8,-,N/A,,Clear,360,2012-11-22 13:53:00
9:53 AM,64.0,36.0,35,30.19,10.0,NNE,10.4,-,N/A,,Clear,20,2012-11-22 14:53:00
10:53 AM,66.9,33.1,28,30.18,10.0,NNE,12.7,18.4,N/A,,Clear,30,2012-11-22 15:53:00
11:53 AM,70.0,30.9,24,30.16,10.0,North,9.2,19.6,N/A,,Clear,10,2012-11-22 16:53:00
12:53 PM,72.0,33.1,24,30.13,10.0,North,12.7,20.7,N/A,,Clear,10,2012-11-22 17:53:00
1:53 PM,73.0,34.0,24,30.11,10.0,NNE,10.4,18.4,N/A,,Clear,20,2012-11-22 18:53:00
2:53 PM,73.9,35.1,24,30.10,10.0,NNE,12.7,18.4,N/A,,Clear,30,2012-11-22 19:53:00
3:53 PM,73.0,35.1,25,30.10,10.0,NNE,11.5,17.3,N/A,,Clear,30,2012-11-22 20:53:00
4:53 PM,71.1,35.1,27,30.12,10.0,North,10.4,17.3,N/A,,Clear,10,2012-11-22 21:53:00
5:53 PM,64.0,45.0,50,30.14,10.0,NNW,6.9,-,N/A,,Clear,330,2012-11-22 22:53:00
6:53 PM,61.0,46.9,60,30.16,10.0,NNW,6.9,-,N/A,,Clear,340,2012-11-22 23:53:00
7:53 PM,60.1,48.9,67,30.19,10.0,North,5.8,-,N/A,,Clear,360,2012-11-23 00:53:00
8:53 PM,60.1,43.0,53,30.20,10.0,Calm,Calm,-,N/A,,Clear,0,2012-11-23 01:53:00
9:53 PM,57.9,37.0,46,30.21,10.0,NNE,4.6,-,N/A,,Clear,30,2012-11-23 02:53:00
10:53 PM,55.9,34.0,44,30.21,10.0,Calm,Calm,-,N/A,,Clear,0,2012-11-23 03:53:00
11:53 PM,54.0,33.1,45,30.19,10.0,Calm,Calm,-,N/A,,Clear,0,2012-11-23 04:53:00